Погода в Немане

Россия / Калининградская область     55°02′19″N   22°01′41″E
темп.,
°C
ветер,
м/с
пор.,
м/с
влажн.,
%
обл.,
%
осадки,
мм/ч
давл.,
гПа
погр.,
м
12 мая, ср
ср1223:00+15юв6147768 0.0 1014420
02:00+12вюв5138132 0.0 1014331
05:00+11вюв5137915 0.0 1014277
08:00+16юв615775 0.0 1013561
11:00+21юв812655 0.0 10131096
14:00+23юв8116340 0.0 10131700
17:00+21вюв71068100 0.0 10121191
20:00+16вюв613690 0.0 1012457
13 мая, чт
чт1323:00+12вюв512760 0.0 1012286
02:00+9вюв35870 0.0 101192
05:00+8в23895 0.0 100946
08:00+13всв3573100 0.0 1008308
11:00+11вюв1287100 0.4 1006239
14:00+14всв3579100 0.8 1004879
17:00+13всв577866 0.7 1003911
20:00+11всв3592100 0.9 1002307
14 мая, пт
пт1423:00+9юв61097100 1.4 1002549
02:00+9вюв599787 2.7 1002397
05:00+9в3797100 0.1 1001390
08:00+10вюв3495100 0.2 1001379
11:00+15ююв347666 0.2 1002926
14:00+17ююз456633 1.4 10021229
17:00+16з44735 0.5 1003625
20:00+11сз11885 0.5 100310
15 мая, сб
сб1523:00+9сз22925 0.0 100417
02:00+7зсз229441 0.0 100541
05:00+6з2496100 0.0 100684
08:00+10з348792 0.0 1007347
11:00+13з347399 0.0 1008781
14:00+15зсз446669 0.0 10081030
17:00+14зсз4467100 0.0 1009748
20:00+9сз3487100 0.0 100997
16 мая, вс
вс1623:00+7сз2292100 0.0 101032
02:00+6ссз119131 0.0 101110
05:00+6вюв11904 0.0 101110
08:00+12юв11726 0.0 1011293
11:00+16юв226274 0.0 1011801
14:00+18юв236057 0.0 10101500
17:00+17в3574100 0.1 1010519
20:00+15в3682100 0.3 1010116